Time,TemperatureF,DewpointF,PressureIn,WindDirection,WindDirectionDegrees,WindSpeedMPH,WindSpeedGustMPH,Humidity,HourlyPrecipIn,Conditions,Clouds,dailyrainin,SoftwareType,DateUTC
2013-12-25 00:00:00,23.0,15.6,30.36,South,190,2.0,4.0,73,0.00,,,0.00,VWS V14.01,2013-12-25 06:00:00,
2013-12-25 00:06:00,23.0,15.6,30.37,South,191,1.0,2.0,73,0.00,,,0.00,VWS V14.01,2013-12-25 06:06:00,
2013-12-25 00:11:00,23.1,15.8,30.36,South,174,0.0,4.0,73,0.00,,,0.00,VWS V14.01,2013-12-25 06:11:00,
2013-12-25 00:16:00,23.1,15.4,30.37,ESE,102,4.0,6.0,72,0.00,,,0.00,VWS V14.01,2013-12-25 06:16:00,
2013-12-25 00:21:00,23.2,15.5,30.36,SE,146,1.0,6.0,72,0.00,,,0.00,VWS V14.01,2013-12-25 06:21:00,
2013-12-25 00:26:00,23.3,15.3,30.36,SSE,148,6.0,6.0,71,0.00,,,0.00,VWS V14.01,2013-12-25 06:26:00,
2013-12-25 00:30:00,23.3,15.3,30.36,South,189,0.0,6.0,71,0.00,,,0.00,VWS V14.01,2013-12-25 06:30:00,
2013-12-25 00:31:00,23.3,15.6,30.36,South,190,0.0,3.0,72,0.00,,,0.00,VWS V14.01,2013-12-25 06:31:00,
2013-12-25 00:36:00,23.4,15.4,30.37,SSW,212,0.0,4.0,71,0.00,,,0.00,VWS V14.01,2013-12-25 06:36:00,
2013-12-25 00:41:00,23.4,15.7,30.36,ESE,109,0.0,4.0,72,0.00,,,0.00,VWS V14.01,2013-12-25 06:41:00,
2013-12-25 00:46:00,23.4,15.7,30.36,SE,135,2.0,4.0,72,0.00,,,0.00,VWS V14.01,2013-12-25 06:46:00,
2013-12-25 00:51:00,23.4,15.4,30.36,SE,133,0.0,4.0,71,0.00,,,0.00,VWS V14.01,2013-12-25 06:51:00,
2013-12-25 00:56:00,23.5,15.5,30.37,WSW,250,0.0,4.0,71,0.00,,,0.00,VWS V14.01,2013-12-25 06:56:00,
2013-12-25 01:00:00,23.6,15.9,30.37,WSW,251,2.0,4.0,72,0.00,,,0.00,VWS V14.01,2013-12-25 07:00:00,
2013-12-25 01:01:00,23.6,15.9,30.37,WSW,251,1.0,2.0,72,0.00,,,0.00,VWS V14.01,2013-12-25 07:01:00,
2013-12-25 01:06:00,23.6,15.6,30.37,SSW,193,1.0,4.0,71,0.00,,,0.00,VWS V14.01,2013-12-25 07:06:00,
2013-12-25 01:11:00,23.6,15.6,30.37,SSW,200,0.0,4.0,71,0.00,,,0.00,VWS V14.01,2013-12-25 07:11:00,
2013-12-25 01:16:00,23.7,16.0,30.38,WSW,244,1.0,4.0,72,0.00,,,0.00,VWS V14.01,2013-12-25 07:16:00,
2013-12-25 01:21:00,23.7,15.7,30.37,WSW,244,0.0,4.0,71,0.00,,,0.00,VWS V14.01,2013-12-25 07:21:00,
2013-12-25 01:26:00,23.8,16.1,30.37,WSW,244,0.0,4.0,72,0.00,,,0.00,VWS V14.01,2013-12-25 07:26:00,
2013-12-25 01:30:00,23.7,16.3,30.37,WSW,244,0.0,4.0,73,0.00,,,0.00,VWS V14.01,2013-12-25 07:30:00,
2013-12-25 01:31:00,23.8,16.1,30.37,WSW,244,0.0,1.0,72,0.00,,,0.00,VWS V14.01,2013-12-25 07:31:00,
2013-12-25 01:36:00,23.7,16.3,30.37,WSW,244,0.0,1.0,73,0.00,,,0.00,VWS V14.01,2013-12-25 07:36:00,
2013-12-25 01:41:00,23.6,16.2,30.36,WSW,244,0.0,2.0,73,0.00,,,0.00,VWS V14.01,2013-12-25 07:41:00,
2013-12-25 01:46:00,23.6,16.5,30.36,WSW,244,0.0,2.0,74,0.00,,,0.00,VWS V14.01,2013-12-25 07:46:00,
2013-12-25 01:51:00,23.5,16.5,30.36,WSW,244,0.0,3.0,74,0.00,,,0.00,VWS V14.01,2013-12-25 07:51:00,
2013-12-25 01:56:00,23.5,16.5,30.36,South,179,0.0,5.0,74,0.00,,,0.00,VWS V14.01,2013-12-25 07:56:00,
2013-12-25 02:00:00,23.5,16.5,30.36,South,180,0.0,5.0,74,0.00,,,0.00,VWS V14.01,2013-12-25 08:00:00,
2013-12-25 02:01:00,23.5,16.8,30.36,South,180,0.0,0.0,75,0.00,,,0.00,VWS V14.01,2013-12-25 08:01:00,
2013-12-25 02:06:00,23.4,16.7,30.36,South,180,0.0,0.0,75,0.00,,,0.00,VWS V14.01,2013-12-25 08:06:00,
2013-12-25 02:11:00,23.5,16.8,30.36,South,180,0.0,1.0,75,0.00,,,0.00,VWS V14.01,2013-12-25 08:11:00,
2013-12-25 02:16:00,23.4,17.0,30.35,South,180,0.0,1.0,76,0.00,,,0.00,VWS V14.01,2013-12-25 08:16:00,
2013-12-25 02:21:00,23.4,17.0,30.36,South,180,0.0,1.0,76,0.00,,,0.00,VWS V14.01,2013-12-25 08:21:00,
2013-12-25 02:26:00,23.4,17.0,30.35,South,180,0.0,2.0,76,0.00,,,0.00,VWS V14.01,2013-12-25 08:26:00,
2013-12-25 02:30:00,23.4,17.0,30.35,South,180,0.0,2.0,76,0.00,,,0.00,VWS V14.01,2013-12-25 08:30:00,
2013-12-25 02:31:00,23.4,17.3,30.35,South,180,0.0,0.0,77,0.00,,,0.00,VWS V14.01,2013-12-25 08:31:00,
2013-12-25 02:36:00,23.5,17.4,30.35,South,187,0.0,3.0,77,0.00,,,0.00,VWS V14.01,2013-12-25 08:36:00,
2013-12-25 02:41:00,23.5,17.4,30.35,South,188,1.0,3.0,77,0.00,,,0.00,VWS V14.01,2013-12-25 08:41:00,
2013-12-25 02:46:00,23.5,17.4,30.34,SW,226,0.0,4.0,77,0.00,,,0.00,VWS V14.01,2013-12-25 08:46:00,
2013-12-25 02:51:00,23.5,17.7,30.34,SW,225,0.0,4.0,78,0.00,,,0.00,VWS V14.01,2013-12-25 08:51:00,
2013-12-25 02:56:00,23.6,17.8,30.34,SSW,205,0.0,6.0,78,0.00,,,0.00,VWS V14.01,2013-12-25 08:56:00,
2013-12-25 03:00:00,23.6,17.8,30.34,SSW,209,0.0,6.0,78,0.00,,,0.00,VWS V14.01,2013-12-25 09:00:00,
2013-12-25 03:01:00,23.6,17.8,30.34,SSW,209,1.0,2.0,78,0.00,,,0.00,VWS V14.01,2013-12-25 09:01:00,
2013-12-25 03:06:00,23.7,17.9,30.34,SSW,205,0.0,4.0,78,0.00,,,0.00,VWS V14.01,2013-12-25 09:06:00,
2013-12-25 03:11:00,23.8,18.0,30.34,SSW,202,0.0,4.0,78,0.00,,,0.00,VWS V14.01,2013-12-25 09:11:00,
2013-12-25 03:16:00,23.9,18.0,30.34,SSW,202,0.0,4.0,78,0.00,,,0.00,VWS V14.01,2013-12-25 09:16:00,
2013-12-25 03:21:00,24.0,18.1,30.34,SSW,204,1.0,4.0,78,0.00,,,0.00,VWS V14.01,2013-12-25 09:21:00,
2013-12-25 03:26:00,24.1,18.2,30.34,SSW,200,2.0,4.0,78,0.00,,,0.00,VWS V14.01,2013-12-25 09:26:00,
2013-12-25 03:30:00,24.2,18.6,30.33,SSW,198,2.0,4.0,79,0.00,,,0.00,VWS V14.01,2013-12-25 09:30:00,
2013-12-25 03:31:00,24.2,18.6,30.33,SSW,198,0.0,3.0,79,0.00,,,0.00,VWS V14.01,2013-12-25 09:31:00,
2013-12-25 03:37:00,24.3,18.7,30.33,SSW,198,0.0,3.0,79,0.00,,,0.00,VWS V14.01,2013-12-25 09:37:00,
2013-12-25 03:42:00,24.4,18.8,30.33,SSW,200,3.0,3.0,79,0.00,,,0.00,VWS V14.01,2013-12-25 09:42:00,
2013-12-25 03:47:00,24.5,18.9,30.33,SSW,206,0.0,4.0,79,0.00,,,0.00,VWS V14.01,2013-12-25 09:47:00,
2013-12-25 03:52:00,24.7,19.4,30.33,SSW,207,0.0,4.0,80,0.00,,,0.00,VWS V14.01,2013-12-25 09:52:00,
2013-12-25 03:57:00,24.8,19.2,30.33,SSW,204,0.0,4.0,79,0.00,,,0.00,VWS V14.01,2013-12-25 09:57:00,
2013-12-25 04:00:00,24.9,19.3,30.33,WSW,243,0.0,4.0,79,0.00,,,0.00,VWS V14.01,2013-12-25 10:00:00,
2013-12-25 04:02:00,25.0,19.4,30.33,WSW,243,4.0,4.0,79,0.00,,,0.00,VWS V14.01,2013-12-25 10:02:00,
2013-12-25 04:07:00,25.2,19.6,30.33,WSW,244,0.0,4.0,79,0.00,,,0.00,VWS V14.01,2013-12-25 10:07:00,
2013-12-25 04:12:00,25.3,19.7,30.33,WSW,244,3.0,4.0,79,0.00,,,0.00,VWS V14.01,2013-12-25 10:12:00,
2013-12-25 04:17:00,25.4,20.1,30.33,SSW,202,1.0,5.0,80,0.00,,,0.00,VWS V14.01,2013-12-25 10:17:00,
2013-12-25 04:22:00,25.5,20.2,30.33,WSW,238,0.0,7.0,80,0.00,,,0.00,VWS V14.01,2013-12-25 10:22:00,
2013-12-25 04:27:00,25.5,20.2,30.33,WSW,243,0.0,7.0,80,0.00,,,0.00,VWS V14.01,2013-12-25 10:27:00,
2013-12-25 04:30:00,25.5,20.5,30.33,WSW,241,0.0,7.0,81,0.00,,,0.00,VWS V14.01,2013-12-25 10:30:00,
2013-12-25 04:32:00,25.5,20.5,30.33,WSW,241,2.0,2.0,81,0.00,,,0.00,VWS V14.01,2013-12-25 10:32:00,
2013-12-25 04:37:00,25.5,20.8,30.33,WSW,241,3.0,5.0,82,0.00,,,0.00,VWS V14.01,2013-12-25 10:37:00,
2013-12-25 04:42:00,25.4,21.0,30.33,SW,235,1.0,5.0,83,0.00,,,0.00,VWS V14.01,2013-12-25 10:42:00,
2013-12-25 04:47:00,25.4,21.0,30.33,SW,235,2.0,5.0,83,0.00,,,0.00,VWS V14.01,2013-12-25 10:47:00,
2013-12-25 04:52:00,25.5,21.1,30.33,SW,225,1.0,5.0,83,0.00,,,0.00,VWS V14.01,2013-12-25 10:52:00,
2013-12-25 04:57:00,25.5,21.4,30.33,SW,235,2.0,5.0,84,0.00,,,0.00,VWS V14.01,2013-12-25 10:57:00,
2013-12-25 05:00:00,25.5,21.4,30.33,WSW,239,1.0,7.0,84,0.00,,,0.00,VWS V14.01,2013-12-25 11:00:00,
2013-12-25 05:02:00,25.5,21.4,30.33,WSW,239,0.0,2.0,84,0.00,,,0.00,VWS V14.01,2013-12-25 11:02:00,
2013-12-25 05:07:00,25.5,21.4,30.33,WSW,239,2.0,4.0,84,0.00,,,0.00,VWS V14.01,2013-12-25 11:07:00,
2013-12-25 05:12:00,25.6,21.7,30.33,WSW,238,1.0,5.0,85,0.00,,,0.00,VWS V14.01,2013-12-25 11:12:00,
2013-12-25 05:17:00,25.6,21.7,30.33,WSW,237,4.0,6.0,85,0.00,,,0.00,VWS V14.01,2013-12-25 11:17:00,
2013-12-25 05:22:00,25.6,21.7,30.33,WSW,238,4.0,6.0,85,0.00,,,0.00,VWS V14.01,2013-12-25 11:22:00,
2013-12-25 05:27:00,25.6,21.7,30.33,WSW,244,1.0,6.0,85,0.00,,,0.00,VWS V14.01,2013-12-25 11:27:00,
2013-12-25 05:30:00,25.7,21.8,30.33,WSW,244,0.0,6.0,85,0.00,,,0.00,VWS V14.01,2013-12-25 11:30:00,
2013-12-25 05:32:00,25.7,22.1,30.33,WSW,243,1.0,6.0,86,0.00,,,0.00,VWS V14.01,2013-12-25 11:32:00,
2013-12-25 05:37:00,25.7,22.1,30.33,WSW,244,1.0,6.0,86,0.00,,,0.00,VWS V14.01,2013-12-25 11:37:00,
2013-12-25 05:42:00,25.7,22.1,30.33,WSW,242,3.0,6.0,86,0.00,,,0.00,VWS V14.01,2013-12-25 11:42:00,
2013-12-25 05:47:00,25.8,22.2,30.33,WSW,242,3.0,6.0,86,0.00,,,0.00,VWS V14.01,2013-12-25 11:47:00,
2013-12-25 05:52:00,25.8,22.5,30.33,WSW,242,0.0,6.0,87,0.00,,,0.00,VWS V14.01,2013-12-25 11:52:00,
2013-12-25 05:57:00,25.8,22.5,30.33,WSW,242,0.0,6.0,87,0.00,,,0.00,VWS V14.01,2013-12-25 11:57:00,
2013-12-25 06:00:00,25.8,22.5,30.33,WSW,242,2.0,6.0,87,0.00,,,0.00,VWS V14.01,2013-12-25 12:00:00,
2013-12-25 06:02:00,25.8,22.5,30.33,WSW,242,0.0,1.0,87,0.00,,,0.00,VWS V14.01,2013-12-25 12:02:00,
2013-12-25 06:07:00,25.8,22.5,30.33,WSW,242,0.0,1.0,87,0.00,,,0.00,VWS V14.01,2013-12-25 12:07:00,
2013-12-25 06:12:00,25.9,22.8,30.33,WSW,242,0.0,2.0,88,0.00,,,0.00,VWS V14.01,2013-12-25 12:12:00,
2013-12-25 06:17:00,25.9,22.6,30.33,WSW,242,0.0,2.0,87,0.00,,,0.00,VWS V14.01,2013-12-25 12:17:00,
2013-12-25 06:22:00,25.9,22.8,30.33,WSW,242,0.0,2.0,88,0.00,,,0.00,VWS V14.01,2013-12-25 12:22:00,
2013-12-25 06:27:00,26.0,22.9,30.33,WSW,242,0.0,3.0,88,0.00,,,0.00,VWS V14.01,2013-12-25 12:27:00,
2013-12-25 06:30:00,26.0,22.9,30.33,WSW,242,2.0,3.0,88,0.00,,,0.00,VWS V14.01,2013-12-25 12:30:00,
2013-12-25 06:32:00,26.0,22.9,30.33,WSW,242,0.0,2.0,88,0.00,,,0.00,VWS V14.01,2013-12-25 12:32:00,
2013-12-25 06:37:00,26.1,23.0,30.33,WSW,242,1.0,2.0,88,0.00,,,0.00,VWS V14.01,2013-12-25 12:37:00,
2013-12-25 06:42:00,26.1,23.0,30.32,WSW,242,0.0,3.0,88,0.00,,,0.00,VWS V14.01,2013-12-25 12:42:00,
2013-12-25 06:47:00,26.2,23.1,30.33,WSW,242,1.0,3.0,88,0.00,,,0.00,VWS V14.01,2013-12-25 12:47:00,
2013-12-25 06:52:00,26.2,23.1,30.32,WSW,242,2.0,3.0,88,0.00,,,0.00,VWS V14.01,2013-12-25 12:52:00,
2013-12-25 06:57:00,26.3,23.2,30.33,WSW,242,1.0,4.0,88,0.00,,,0.00,VWS V14.01,2013-12-25 12:57:00,
2013-12-25 07:00:00,26.3,23.2,30.33,WSW,242,3.0,4.0,88,0.00,,,0.00,VWS V14.01,2013-12-25 13:00:00,
2013-12-25 07:02:00,26.4,23.3,30.33,WSW,242,2.0,4.0,88,0.00,,,0.00,VWS V14.01,2013-12-25 13:02:00,
2013-12-25 07:07:00,26.5,23.4,30.33,WSW,242,2.0,4.0,88,0.00,,,0.00,VWS V14.01,2013-12-25 13:07:00,
2013-12-25 07:12:00,26.6,23.5,30.33,WSW,242,1.0,4.0,88,0.00,,,0.00,VWS V14.01,2013-12-25 13:12:00,
2013-12-25 07:17:00,26.6,23.5,30.33,WSW,242,1.0,4.0,88,0.00,,,0.00,VWS V14.01,2013-12-25 13:17:00,
2013-12-25 07:22:00,26.7,23.6,30.33,WSW,242,2.0,4.0,88,0.00,,,0.00,VWS V14.01,2013-12-25 13:22:00,
2013-12-25 07:27:00,26.7,23.6,30.33,WSW,242,2.0,4.0,88,0.00,,,0.00,VWS V14.01,2013-12-25 13:27:00,
2013-12-25 07:30:00,26.8,23.7,30.33,WSW,242,1.0,4.0,88,0.00,,,0.00,VWS V14.01,2013-12-25 13:30:00,
2013-12-25 07:32:00,26.8,23.7,30.33,WSW,242,0.0,2.0,88,0.00,,,0.00,VWS V14.01,2013-12-25 13:32:00,
2013-12-25 07:37:00,26.9,23.8,30.33,WSW,242,2.0,2.0,88,0.00,,,0.00,VWS V14.01,2013-12-25 13:37:00,
2013-12-25 07:42:00,26.9,23.8,30.33,WSW,242,0.0,3.0,88,0.00,,,0.00,VWS V14.01,2013-12-25 13:42:00,
2013-12-25 07:47:00,27.0,23.9,30.33,WSW,242,2.0,4.0,88,0.00,,,0.00,VWS V14.01,2013-12-25 13:47:00,
2013-12-25 07:52:00,27.0,23.9,30.33,WSW,242,2.0,4.0,88,0.00,,,0.00,VWS V14.01,2013-12-25 13:52:00,
2013-12-25 07:57:00,27.0,23.9,30.33,WSW,242,0.0,4.0,88,0.00,,,0.00,VWS V14.01,2013-12-25 13:57:00,
2013-12-25 08:00:00,27.1,24.0,30.33,WSW,242,3.0,4.0,88,0.00,,,0.00,VWS V14.01,2013-12-25 14:00:00,
2013-12-25 08:02:00,27.1,24.0,30.33,WSW,242,0.0,3.0,88,0.00,,,0.00,VWS V14.01,2013-12-25 14:02:00,
2013-12-25 08:07:00,27.2,24.1,30.33,WSW,242,0.0,3.0,88,0.00,,,0.00,VWS V14.01,2013-12-25 14:07:00,
2013-12-25 08:12:00,27.2,24.1,30.34,WSW,242,0.0,3.0,88,0.00,,,0.00,VWS V14.01,2013-12-25 14:12:00,
2013-12-25 08:17:00,27.3,24.2,30.34,WSW,242,0.0,3.0,88,0.00,,,0.00,VWS V14.01,2013-12-25 14:17:00,
2013-12-25 08:22:00,27.4,24.3,30.33,WSW,242,0.0,3.0,88,0.00,,,0.00,VWS V14.01,2013-12-25 14:22:00,
2013-12-25 08:27:00,27.5,24.4,30.33,WSW,242,0.0,3.0,88,0.00,,,0.00,VWS V14.01,2013-12-25 14:27:00,
2013-12-25 08:30:00,27.5,24.4,30.34,WSW,242,0.0,3.0,88,0.00,,,0.00,VWS V14.01,2013-12-25 14:30:00,
2013-12-25 08:32:00,27.6,24.5,30.34,WSW,242,0.0,0.0,88,0.00,,,0.00,VWS V14.01,2013-12-25 14:32:00,
2013-12-25 08:37:00,27.7,24.6,30.33,WSW,242,2.0,2.0,88,0.00,,,0.00,VWS V14.01,2013-12-25 14:37:00,
2013-12-25 08:42:00,27.8,24.7,30.33,WSW,242,2.0,5.0,88,0.00,,,0.00,VWS V14.01,2013-12-25 14:42:00,
2013-12-25 08:47:00,27.8,24.7,30.33,WSW,242,0.0,5.0,88,0.00,,,0.00,VWS V14.01,2013-12-25 14:47:00,
2013-12-25 08:52:00,27.9,24.8,30.33,WSW,242,1.0,5.0,88,0.00,,,0.00,VWS V14.01,2013-12-25 14:52:00,
2013-12-25 08:57:00,28.0,24.9,30.33,WSW,241,2.0,5.0,88,0.00,,,0.00,VWS V14.01,2013-12-25 14:57:00,
2013-12-25 09:00:00,28.0,24.9,30.33,WSW,241,0.0,5.0,88,0.00,,,0.00,VWS V14.01,2013-12-25 15:00:00,
2013-12-25 09:02:00,28.1,25.0,30.33,WSW,241,0.0,2.0,88,0.00,,,0.00,VWS V14.01,2013-12-25 15:02:00,
2013-12-25 09:07:00,28.1,25.0,30.34,WSW,241,2.0,3.0,88,0.00,,,0.00,VWS V14.01,2013-12-25 15:07:00,
2013-12-25 09:12:00,28.2,25.1,30.34,WSW,241,4.0,4.0,88,0.00,,,0.00,VWS V14.01,2013-12-25 15:12:00,
2013-12-25 09:17:00,28.3,25.2,30.34,WSW,239,3.0,5.0,88,0.00,,,0.00,VWS V14.01,2013-12-25 15:17:00,
2013-12-25 09:23:00,28.3,25.2,30.34,SW,236,3.0,5.0,88,0.00,,,0.00,VWS V14.01,2013-12-25 15:23:00,
2013-12-25 09:28:00,28.4,25.3,30.34,SW,236,2.0,5.0,88,0.00,,,0.00,VWS V14.01,2013-12-25 15:28:00,
2013-12-25 09:30:00,28.5,25.4,30.34,SW,236,0.0,5.0,88,0.00,,,0.00,VWS V14.01,2013-12-25 15:30:00,
2013-12-25 09:33:00,28.5,25.4,30.34,SW,236,1.0,3.0,88,0.00,,,0.00,VWS V14.01,2013-12-25 15:33:00,
2013-12-25 09:38:00,28.6,25.5,30.34,SW,236,2.0,3.0,88,0.00,,,0.00,VWS V14.01,2013-12-25 15:38:00,
2013-12-25 09:43:00,28.7,25.6,30.34,SW,236,0.0,3.0,88,0.00,,,0.00,VWS V14.01,2013-12-25 15:43:00,
2013-12-25 09:48:00,28.8,25.7,30.34,SW,236,2.0,5.0,88,0.00,,,0.00,VWS V14.01,2013-12-25 15:48:00,
2013-12-25 09:53:00,28.9,25.8,30.34,SW,236,1.0,5.0,88,0.00,,,0.00,VWS V14.01,2013-12-25 15:53:00,
2013-12-25 09:58:00,29.0,25.9,30.34,SW,236,0.0,5.0,88,0.00,,,0.00,VWS V14.01,2013-12-25 15:58:00,
2013-12-25 10:00:00,29.0,26.2,30.34,SW,236,2.0,5.0,89,0.00,,,0.00,VWS V14.01,2013-12-25 16:00:00,
2013-12-25 10:03:00,29.1,26.0,30.34,SW,236,2.0,5.0,88,0.00,,,0.00,VWS V14.01,2013-12-25 16:03:00,
2013-12-25 10:08:00,29.2,26.1,30.34,SW,236,1.0,5.0,88,0.00,,,0.00,VWS V14.01,2013-12-25 16:08:00,
2013-12-25 10:13:00,29.2,26.4,30.34,SW,236,0.0,5.0,89,0.00,,,0.00,VWS V14.01,2013-12-25 16:13:00,
2013-12-25 10:18:00,29.3,26.5,30.34,SW,236,2.0,5.0,89,0.00,,,0.00,VWS V14.01,2013-12-25 16:18:00,
2013-12-25 10:23:00,29.4,26.6,30.34,SW,236,0.0,5.0,89,0.00,,,0.00,VWS V14.01,2013-12-25 16:23:00,
2013-12-25 10:28:00,29.5,26.7,30.34,SW,236,0.0,5.0,89,0.00,,,0.00,VWS V14.01,2013-12-25 16:28:00,
2013-12-25 10:30:00,29.6,26.8,30.34,SW,236,1.0,5.0,89,0.00,,,0.00,VWS V14.01,2013-12-25 16:30:00,
2013-12-25 10:33:00,29.6,26.8,30.34,SW,236,0.0,4.0,89,0.00,,,0.00,VWS V14.01,2013-12-25 16:33:00,
2013-12-25 10:38:00,29.7,26.9,30.34,SW,236,2.0,4.0,89,0.00,,,0.00,VWS V14.01,2013-12-25 16:38:00,
2013-12-25 10:43:00,29.8,27.0,30.34,SW,236,0.0,4.0,89,0.00,,,0.00,VWS V14.01,2013-12-25 16:43:00,
2013-12-25 10:48:00,30.0,27.2,30.33,SW,236,0.0,4.0,89,0.00,,,0.00,VWS V14.01,2013-12-25 16:48:00,
2013-12-25 10:53:00,30.1,27.3,30.33,SW,236,0.0,4.0,89,0.00,,,0.00,VWS V14.01,2013-12-25 16:53:00,
2013-12-25 10:58:00,30.3,27.7,30.33,SW,236,0.0,4.0,90,0.00,,,0.00,VWS V14.01,2013-12-25 16:58:00,
2013-12-25 11:00:00,30.3,27.5,30.33,SW,236,0.0,4.0,89,0.00,,,0.00,VWS V14.01,2013-12-25 17:00:00,
2013-12-25 11:03:00,30.4,27.5,30.33,SW,236,0.0,0.0,89,0.00,,,0.00,VWS V14.01,2013-12-25 17:03:00,
2013-12-25 11:08:00,30.5,27.6,30.32,SW,236,0.0,0.0,89,0.00,,,0.00,VWS V14.01,2013-12-25 17:08:00,
2013-12-25 11:13:00,30.6,27.8,30.32,SW,236,0.0,0.0,89,0.00,,,0.00,VWS V14.01,2013-12-25 17:13:00,
2013-12-25 11:18:00,30.7,28.1,30.32,SW,236,1.0,2.0,90,0.00,,,0.00,VWS V14.01,2013-12-25 17:18:00,
2013-12-25 11:23:00,30.8,28.2,30.32,SW,236,0.0,2.0,90,0.00,,,0.00,VWS V14.01,2013-12-25 17:23:00,
2013-12-25 11:28:00,31.0,28.4,30.32,SW,236,1.0,4.0,90,0.00,,,0.00,VWS V14.01,2013-12-25 17:28:00,
2013-12-25 11:30:00,31.0,28.4,30.31,SW,236,2.0,4.0,90,0.00,,,0.00,VWS V14.01,2013-12-25 17:30:00,
2013-12-25 11:33:00,31.1,28.2,30.31,SW,236,1.0,4.0,89,0.00,,,0.00,VWS V14.01,2013-12-25 17:33:00,
2013-12-25 11:38:00,31.3,28.7,30.31,SW,235,2.0,4.0,90,0.00,,,0.00,VWS V14.01,2013-12-25 17:38:00,
2013-12-25 11:43:00,31.4,28.5,30.31,SW,235,0.0,4.0,89,0.00,,,0.00,VWS V14.01,2013-12-25 17:43:00,
2013-12-25 11:48:00,31.5,28.6,30.30,SW,235,2.0,4.0,89,0.00,,,0.00,VWS V14.01,2013-12-25 17:48:00,
2013-12-25 11:53:00,31.6,28.7,30.30,SW,235,0.0,4.0,89,0.00,,,0.00,VWS V14.01,2013-12-25 17:53:00,
2013-12-25 11:58:00,31.7,28.6,30.30,SW,236,2.0,5.0,88,0.00,,,0.00,VWS V14.01,2013-12-25 17:58:00,
2013-12-25 12:00:00,31.8,28.7,30.30,SW,236,2.0,5.0,88,0.00,,,0.00,VWS V14.01,2013-12-25 18:00:00,
2013-12-25 12:03:00,31.9,28.8,30.30,SW,235,2.0,5.0,88,0.00,,,0.00,VWS V14.01,2013-12-25 18:03:00,
2013-12-25 12:08:00,32.0,28.9,30.29,West,266,4.0,9.0,88,0.00,,,0.00,VWS V14.01,2013-12-25 18:08:00,
2013-12-25 12:13:00,32.2,28.8,30.29,WSW,247,5.0,9.0,87,0.00,,,0.00,VWS V14.01,2013-12-25 18:13:00,
2013-12-25 12:18:00,32.3,28.6,30.28,SW,219,5.0,9.0,86,0.00,,,0.00,VWS V14.01,2013-12-25 18:18:00,
2013-12-25 12:23:00,32.3,28.6,30.28,WSW,246,5.0,9.0,86,0.00,,,0.00,VWS V14.01,2013-12-25 18:23:00,
2013-12-25 12:28:00,32.3,28.6,30.28,West,262,2.0,9.0,86,0.00,,,0.00,VWS V14.01,2013-12-25 18:28:00,
2013-12-25 12:30:00,32.4,28.7,30.28,SW,233,5.0,9.0,86,0.00,,,0.00,VWS V14.01,2013-12-25 18:30:00,
2013-12-25 12:33:00,32.4,28.7,30.28,West,278,2.0,5.0,86,0.00,,,0.00,VWS V14.01,2013-12-25 18:33:00,
2013-12-25 12:38:00,32.5,28.8,30.28,WSW,257,2.0,5.0,86,0.00,,,0.00,VWS V14.01,2013-12-25 18:38:00,
2013-12-25 12:43:00,32.5,28.8,30.28,West,279,2.0,7.0,86,0.00,,,0.00,VWS V14.01,2013-12-25 18:43:00,
2013-12-25 12:48:00,32.5,28.8,30.28,WSW,257,4.0,7.0,86,0.00,,,0.00,VWS V14.01,2013-12-25 18:48:00,
2013-12-25 12:53:00,32.6,28.9,30.27,West,261,3.0,7.0,86,0.00,,,0.00,VWS V14.01,2013-12-25 18:53:00,
2013-12-25 12:58:00,32.6,28.9,30.27,West,271,8.0,8.0,86,0.00,,,0.00,VWS V14.01,2013-12-25 18:58:00,
2013-12-25 13:00:00,32.6,28.9,30.27,West,272,2.0,8.0,86,0.00,,,0.00,VWS V14.01,2013-12-25 19:00:00,
2013-12-25 13:03:00,32.6,28.9,30.27,WSW,258,3.0,5.0,86,0.00,,,0.00,VWS V14.01,2013-12-25 19:03:00,
2013-12-25 13:08:00,32.7,29.0,30.27,West,263,1.0,8.0,86,0.00,,,0.00,VWS V14.01,2013-12-25 19:08:00,
2013-12-25 13:13:00,32.7,29.0,30.26,West,277,2.0,8.0,86,0.00,,,0.00,VWS V14.01,2013-12-25 19:13:00,
2013-12-25 13:18:00,32.8,29.1,30.26,WSW,246,1.0,8.0,86,0.00,,,0.00,VWS V14.01,2013-12-25 19:18:00,
2013-12-25 13:23:00,32.8,29.1,30.26,West,279,6.0,8.0,86,0.00,,,0.00,VWS V14.01,2013-12-25 19:23:00,
2013-12-25 13:28:00,32.9,28.9,30.26,WSW,254,3.0,8.0,85,0.00,,,0.00,VWS V14.01,2013-12-25 19:28:00,
2013-12-25 13:30:00,32.9,28.9,30.26,WSW,257,3.0,8.0,85,0.00,,,0.00,VWS V14.01,2013-12-25 19:30:00,
2013-12-25 13:33:00,32.9,29.2,30.26,WSW,256,2.0,5.0,86,0.00,,,0.00,VWS V14.01,2013-12-25 19:33:00,
2013-12-25 13:38:00,33.0,29.3,30.26,West,277,2.0,9.0,86,0.00,,,0.00,VWS V14.01,2013-12-25 19:38:00,
2013-12-25 13:43:00,33.0,29.0,30.26,West,259,3.0,9.0,85,0.00,,,0.00,VWS V14.01,2013-12-25 19:43:00,
2013-12-25 13:48:00,33.0,29.0,30.25,WSW,252,6.0,9.0,85,0.00,,,0.00,VWS V14.01,2013-12-25 19:48:00,
2013-12-25 13:53:00,33.0,29.0,30.25,West,266,2.0,9.0,85,0.00,,,0.00,VWS V14.01,2013-12-25 19:53:00,
2013-12-25 13:58:00,33.0,29.0,30.26,WSW,254,3.0,10.0,85,0.00,,,0.00,VWS V14.01,2013-12-25 19:58:00,
2013-12-25 14:00:00,33.0,29.0,30.25,WSW,246,5.0,10.0,85,0.00,,,0.00,VWS V14.01,2013-12-25 20:00:00,
2013-12-25 14:03:00,33.0,29.0,30.26,WNW,283,8.0,9.0,85,0.00,,,0.00,VWS V14.01,2013-12-25 20:03:00,
2013-12-25 14:08:00,33.0,28.7,30.25,West,263,4.0,9.0,84,0.00,,,0.00,VWS V14.01,2013-12-25 20:08:00,
2013-12-25 14:13:00,33.1,29.1,30.25,WSW,240,3.0,12.0,85,0.00,,,0.00,VWS V14.01,2013-12-25 20:13:00,
2013-12-25 14:18:00,33.0,29.0,30.25,WSW,253,0.0,12.0,85,0.00,,,0.00,VWS V14.01,2013-12-25 20:18:00,
2013-12-25 14:24:00,33.1,29.1,30.25,WSW,244,3.0,12.0,85,0.00,,,0.00,VWS V14.01,2013-12-25 20:24:00,
2013-12-25 14:29:00,33.1,29.1,30.25,West,271,6.0,13.0,85,0.00,,,0.00,VWS V14.01,2013-12-25 20:29:00,
2013-12-25 14:30:00,33.1,28.8,30.25,West,267,5.0,13.0,84,0.00,,,0.00,VWS V14.01,2013-12-25 20:30:00,
2013-12-25 14:34:00,33.2,28.9,30.25,West,265,5.0,6.0,84,0.00,,,0.00,VWS V14.01,2013-12-25 20:34:00,
2013-12-25 14:39:00,33.2,28.9,30.25,WSW,253,2.0,9.0,84,0.00,,,0.00,VWS V14.01,2013-12-25 20:39:00,
2013-12-25 14:44:00,33.2,29.2,30.25,WSW,252,0.0,9.0,85,0.00,,,0.00,VWS V14.01,2013-12-25 20:44:00,
2013-12-25 14:49:00,33.2,29.2,30.25,WSW,240,0.0,9.0,85,0.00,,,0.00,VWS V14.01,2013-12-25 20:49:00,
2013-12-25 14:54:00,33.2,28.9,30.26,WSW,256,4.0,9.0,84,0.00,,,0.00,VWS V14.01,2013-12-25 20:54:00,
2013-12-25 14:59:00,33.2,28.9,30.26,West,267,2.0,10.0,84,0.00,,,0.00,VWS V14.01,2013-12-25 20:59:00,
2013-12-25 15:00:00,33.2,29.2,30.26,WSW,252,5.0,10.0,85,0.00,,,0.00,VWS V14.01,2013-12-25 21:00:00,
2013-12-25 15:04:00,33.2,29.2,30.26,WSW,239,3.0,7.0,85,0.00,,,0.00,VWS V14.01,2013-12-25 21:04:00,
2013-12-25 15:09:00,33.2,29.2,30.26,WNW,289,2.0,7.0,85,0.00,,,0.00,VWS V14.01,2013-12-25 21:09:00,
2013-12-25 15:14:00,33.2,29.2,30.27,WSW,244,2.0,7.0,85,0.00,,,0.00,VWS V14.01,2013-12-25 21:14:00,
2013-12-25 15:19:00,33.2,29.2,30.27,West,275,5.0,7.0,85,0.00,,,0.00,VWS V14.01,2013-12-25 21:19:00,
2013-12-25 15:24:00,33.2,29.2,30.27,West,281,0.0,7.0,85,0.00,,,0.00,VWS V14.01,2013-12-25 21:24:00,
2013-12-25 15:29:00,33.2,29.2,30.26,WSW,254,4.0,7.0,85,0.00,,,0.00,VWS V14.01,2013-12-25 21:29:00,
2013-12-25 15:30:00,33.2,29.2,30.26,WSW,238,2.0,7.0,85,0.00,,,0.00,VWS V14.01,2013-12-25 21:30:00,
2013-12-25 15:34:00,33.2,29.2,30.26,WSW,257,3.0,8.0,85,0.00,,,0.00,VWS V14.01,2013-12-25 21:34:00,
2013-12-25 15:39:00,33.2,29.2,30.26,WSW,243,0.0,8.0,85,0.00,,,0.00,VWS V14.01,2013-12-25 21:39:00,
2013-12-25 15:44:00,33.2,29.2,30.26,West,259,3.0,8.0,85,0.00,,,0.00,VWS V14.01,2013-12-25 21:44:00,
2013-12-25 15:49:00,33.2,29.2,30.26,WNW,283,4.0,8.0,85,0.00,,,0.00,VWS V14.01,2013-12-25 21:49:00,
2013-12-25 15:54:00,33.2,29.2,30.26,West,272,4.0,8.0,85,0.00,,,0.00,VWS V14.01,2013-12-25 21:54:00,
2013-12-25 15:59:00,33.2,29.2,30.26,WSW,254,6.0,8.0,85,0.00,,,0.00,VWS V14.01,2013-12-25 21:59:00,
2013-12-25 16:00:00,33.2,29.2,30.26,WSW,250,3.0,8.0,85,0.00,,,0.00,VWS V14.01,2013-12-25 22:00:00,
2013-12-25 16:04:00,33.1,29.1,30.26,WSW,251,4.0,6.0,85,0.00,,,0.00,VWS V14.01,2013-12-25 22:04:00,
2013-12-25 16:09:00,33.0,29.0,30.26,WSW,254,2.0,7.0,85,0.00,,,0.00,VWS V14.01,2013-12-25 22:09:00,
2013-12-25 16:14:00,32.9,28.9,30.27,WSW,254,4.0,10.0,85,0.00,,,0.00,VWS V14.01,2013-12-25 22:14:00,
2013-12-25 16:19:00,32.8,28.8,30.27,WSW,250,3.0,10.0,85,0.00,,,0.00,VWS V14.01,2013-12-25 22:19:00,
2013-12-25 16:24:00,32.8,28.8,30.28,West,261,2.0,10.0,85,0.00,,,0.00,VWS V14.01,2013-12-25 22:24:00,
2013-12-25 16:29:00,32.7,28.7,30.27,West,263,1.0,10.0,85,0.00,,,0.00,VWS V14.01,2013-12-25 22:29:00,
2013-12-25 16:30:00,32.7,28.7,30.28,SW,231,3.0,10.0,85,0.00,,,0.00,VWS V14.01,2013-12-25 22:30:00,
2013-12-25 16:34:00,32.7,28.7,30.28,SW,224,4.0,6.0,85,0.00,,,0.00,VWS V14.01,2013-12-25 22:34:00,
2013-12-25 16:39:00,32.6,28.6,30.28,WSW,255,4.0,7.0,85,0.00,,,0.00,VWS V14.01,2013-12-25 22:39:00,
2013-12-25 16:44:00,32.7,28.7,30.28,WSW,253,2.0,8.0,85,0.00,,,0.00,VWS V14.01,2013-12-25 22:44:00,
2013-12-25 16:49:00,32.7,28.7,30.28,West,267,1.0,8.0,85,0.00,,,0.00,VWS V14.01,2013-12-25 22:49:00,
2013-12-25 16:54:00,32.7,29.0,30.28,West,269,3.0,8.0,86,0.00,,,0.00,VWS V14.01,2013-12-25 22:54:00,
2013-12-25 16:59:00,32.7,29.0,30.28,WSW,246,3.0,8.0,86,0.00,,,0.00,VWS V14.01,2013-12-25 22:59:00,
2013-12-25 17:00:00,32.7,29.0,30.28,West,262,4.0,8.0,86,0.00,,,0.00,VWS V14.01,2013-12-25 23:00:00,
2013-12-25 17:04:00,32.7,29.0,30.28,West,267,4.0,7.0,86,0.00,,,0.00,VWS V14.01,2013-12-25 23:04:00,
2013-12-25 17:09:00,32.7,29.0,30.28,WSW,250,2.0,7.0,86,0.00,,,0.00,VWS V14.01,2013-12-25 23:09:00,
2013-12-25 17:14:00,32.7,29.0,30.28,WSW,257,3.0,7.0,86,0.00,,,0.00,VWS V14.01,2013-12-25 23:14:00,
2013-12-25 17:19:00,32.8,28.8,30.29,West,270,2.0,7.0,85,0.00,,,0.00,VWS V14.01,2013-12-25 23:19:00,
2013-12-25 17:24:00,32.8,28.8,30.29,West,281,4.0,7.0,85,0.00,,,0.00,VWS V14.01,2013-12-25 23:24:00,
2013-12-25 17:29:00,32.9,28.9,30.29,WSW,242,2.0,7.0,85,0.00,,,0.00,VWS V14.01,2013-12-25 23:29:00,
2013-12-25 17:30:00,32.8,28.8,30.29,West,279,4.0,7.0,85,0.00,,,0.00,VWS V14.01,2013-12-25 23:30:00,
2013-12-25 17:34:00,32.9,28.9,30.29,West,271,6.0,6.0,85,0.00,,,0.00,VWS V14.01,2013-12-25 23:34:00,
2013-12-25 17:39:00,33.0,29.0,30.29,West,259,3.0,8.0,85,0.00,,,0.00,VWS V14.01,2013-12-25 23:39:00,
2013-12-25 17:44:00,33.0,29.0,30.29,WNW,294,2.0,8.0,85,0.00,,,0.00,VWS V14.01,2013-12-25 23:44:00,
2013-12-25 17:49:00,33.0,29.0,30.30,WSW,256,2.0,8.0,85,0.00,,,0.00,VWS V14.01,2013-12-25 23:49:00,
2013-12-25 17:54:00,33.0,29.0,30.29,West,266,6.0,8.0,85,0.00,,,0.00,VWS V14.01,2013-12-25 23:54:00,
2013-12-25 17:59:00,33.1,29.1,30.29,West,271,5.0,8.0,85,0.00,,,0.00,VWS V14.01,2013-12-25 23:59:00,
2013-12-25 18:00:00,33.1,29.1,30.29,West,271,5.0,8.0,85,0.00,,,0.00,VWS V14.01,2013-12-26 00:00:00,
2013-12-25 18:04:00,33.1,29.1,30.30,WNW,286,6.0,8.0,85,0.00,,,0.00,VWS V14.01,2013-12-26 00:04:00,
2013-12-25 18:09:00,33.2,29.2,30.30,West,264,2.0,8.0,85,0.00,,,0.00,VWS V14.01,2013-12-26 00:09:00,
2013-12-25 18:14:00,33.2,29.2,30.30,WNW,300,2.0,9.0,85,0.00,,,0.00,VWS V14.01,2013-12-26 00:14:00,
2013-12-25 18:19:00,33.3,29.3,30.30,WNW,296,2.0,10.0,85,0.00,,,0.00,VWS V14.01,2013-12-26 00:19:00,
2013-12-25 18:24:00,33.3,29.0,30.30,WNW,291,4.0,10.0,84,0.00,,,0.00,VWS V14.01,2013-12-26 00:24:00,
2013-12-25 18:29:00,33.3,29.0,30.30,West,269,5.0,10.0,84,0.00,,,0.00,VWS V14.01,2013-12-26 00:29:00,
2013-12-25 18:30:00,33.4,29.1,30.30,West,270,2.0,10.0,84,0.00,,,0.00,VWS V14.01,2013-12-26 00:30:00,
2013-12-25 18:34:00,33.4,29.1,30.30,West,277,2.0,8.0,84,0.00,,,0.00,VWS V14.01,2013-12-26 00:34:00,
2013-12-25 18:39:00,33.5,29.2,30.30,West,275,6.0,8.0,84,0.00,,,0.00,VWS V14.01,2013-12-26 00:39:00,
2013-12-25 18:44:00,33.5,29.2,30.30,West,268,5.0,12.0,84,0.00,,,0.00,VWS V14.01,2013-12-26 00:44:00,
2013-12-25 18:49:00,33.5,29.2,30.30,West,260,2.0,12.0,84,0.00,,,0.00,VWS V14.01,2013-12-26 00:49:00,
2013-12-25 18:54:00,33.5,29.2,30.30,WSW,243,2.0,12.0,84,0.00,,,0.00,VWS V14.01,2013-12-26 00:54:00,
2013-12-25 18:59:00,33.5,29.2,30.30,West,281,5.0,12.0,84,0.00,,,0.00,VWS V14.01,2013-12-26 00:59:00,
2013-12-25 19:00:00,33.5,29.2,30.30,West,280,4.0,12.0,84,0.00,,,0.00,VWS V14.01,2013-12-26 01:00:00,
2013-12-25 19:04:00,33.6,29.3,30.30,West,271,5.0,11.0,84,0.00,,,0.00,VWS V14.01,2013-12-26 01:04:00,
2013-12-25 19:09:00,33.6,29.3,30.30,WSW,248,3.0,11.0,84,0.00,,,0.00,VWS V14.01,2013-12-26 01:09:00,
2013-12-25 19:14:00,33.6,29.3,30.30,WSW,252,2.0,11.0,84,0.00,,,0.00,VWS V14.01,2013-12-26 01:14:00,
2013-12-25 19:19:00,33.5,29.2,30.30,WSW,251,3.0,11.0,84,0.00,,,0.00,VWS V14.01,2013-12-26 01:19:00,
2013-12-25 19:24:00,33.5,29.2,30.30,WSW,241,2.0,11.0,84,0.00,,,0.00,VWS V14.01,2013-12-26 01:24:00,
2013-12-25 19:29:00,33.5,29.2,30.30,WSW,241,2.0,11.0,84,0.00,,,0.00,VWS V14.01,2013-12-26 01:29:00,
2013-12-25 19:30:00,33.5,29.2,30.30,WSW,241,2.0,11.0,84,0.00,,,0.00,VWS V14.01,2013-12-26 01:30:00,
2013-12-25 19:34:00,33.5,29.2,30.30,WSW,242,1.0,4.0,84,0.00,,,0.00,VWS V14.01,2013-12-26 01:34:00,
2013-12-25 19:39:00,33.6,29.3,30.30,SW,236,3.0,6.0,84,0.00,,,0.00,VWS V14.01,2013-12-26 01:39:00,
2013-12-25 19:44:00,33.7,29.4,30.31,West,261,5.0,9.0,84,0.00,,,0.00,VWS V14.01,2013-12-26 01:44:00,
2013-12-25 19:49:00,33.7,29.4,30.30,West,262,2.0,9.0,84,0.00,,,0.00,VWS V14.01,2013-12-26 01:49:00,
2013-12-25 19:54:00,33.7,29.4,30.31,West,264,3.0,9.0,84,0.00,,,0.00,VWS V14.01,2013-12-26 01:54:00,
2013-12-25 19:59:00,33.7,29.1,30.31,West,263,3.0,9.0,83,0.00,,,0.00,VWS V14.01,2013-12-26 01:59:00,
2013-12-25 20:00:00,33.7,29.1,30.31,West,263,3.0,9.0,83,0.00,,,0.00,VWS V14.01,2013-12-26 02:00:00,
2013-12-25 20:05:00,33.8,29.2,30.31,WSW,240,3.0,5.0,83,0.00,,,0.00,VWS V14.01,2013-12-26 02:05:00,
2013-12-25 20:10:00,33.8,29.2,30.31,SW,236,4.0,7.0,83,0.00,,,0.00,VWS V14.01,2013-12-26 02:10:00,
2013-12-25 20:15:00,33.9,29.3,30.31,SW,234,3.0,8.0,83,0.00,,,0.00,VWS V14.01,2013-12-26 02:15:00,
2013-12-25 20:20:00,34.0,29.4,30.31,West,262,3.0,8.0,83,0.00,,,0.00,VWS V14.01,2013-12-26 02:20:00,
2013-12-25 20:25:00,34.0,29.4,30.31,WNW,298,4.0,8.0,83,0.00,,,0.00,VWS V14.01,2013-12-26 02:25:00,
2013-12-25 20:30:00,33.9,29.3,30.31,WSW,250,2.0,8.0,83,0.00,,,0.00,VWS V14.01,2013-12-26 02:30:00,
2013-12-25 20:35:00,33.9,29.3,30.31,WSW,254,2.0,7.0,83,0.00,,,0.00,VWS V14.01,2013-12-26 02:35:00,
2013-12-25 20:40:00,33.8,28.9,30.31,WSW,250,3.0,7.0,82,0.00,,,0.00,VWS V14.01,2013-12-26 02:40:00,
2013-12-25 20:45:00,33.7,29.1,30.31,WSW,252,2.0,7.0,83,0.00,,,0.00,VWS V14.01,2013-12-26 02:45:00,
2013-12-25 20:50:00,33.7,29.1,30.31,WSW,258,3.0,7.0,83,0.00,,,0.00,VWS V14.01,2013-12-26 02:50:00,
2013-12-25 20:55:00,33.7,29.1,30.31,West,269,2.0,7.0,83,0.00,,,0.00,VWS V14.01,2013-12-26 02:55:00,
2013-12-25 21:00:00,33.7,28.8,30.32,NW,306,1.0,7.0,82,0.00,,,0.00,VWS V14.01,2013-12-26 03:00:00,
2013-12-25 21:05:00,33.7,28.8,30.31,WSW,242,2.0,5.0,82,0.00,,,0.00,VWS V14.01,2013-12-26 03:05:00,
2013-12-25 21:10:00,33.7,28.8,30.32,West,269,4.0,5.0,82,0.00,,,0.00,VWS V14.01,2013-12-26 03:10:00,
2013-12-25 21:15:00,33.7,28.8,30.32,West,269,1.0,5.0,82,0.00,,,0.00,VWS V14.01,2013-12-26 03:15:00,
2013-12-25 21:20:00,33.6,28.7,30.31,West,280,2.0,6.0,82,0.00,,,0.00,VWS V14.01,2013-12-26 03:20:00,
2013-12-25 21:25:00,33.6,29.0,30.32,West,277,2.0,6.0,83,0.00,,,0.00,VWS V14.01,2013-12-26 03:25:00,
2013-12-25 21:30:00,33.6,29.0,30.31,West,263,2.0,6.0,83,0.00,,,0.00,VWS V14.01,2013-12-26 03:30:00,
2013-12-25 21:35:00,33.5,28.9,30.31,West,267,2.0,4.0,83,0.00,,,0.00,VWS V14.01,2013-12-26 03:35:00,
2013-12-25 21:40:00,33.5,28.9,30.31,West,271,7.0,7.0,83,0.00,,,0.00,VWS V14.01,2013-12-26 03:40:00,
2013-12-25 21:45:00,33.5,28.9,30.31,West,280,2.0,7.0,83,0.00,,,0.00,VWS V14.01,2013-12-26 03:45:00,
2013-12-25 21:50:00,33.4,28.8,30.31,West,280,4.0,7.0,83,0.00,,,0.00,VWS V14.01,2013-12-26 03:50:00,
2013-12-25 21:55:00,33.4,28.8,30.32,WSW,248,2.0,7.0,83,0.00,,,0.00,VWS V14.01,2013-12-26 03:55:00,
2013-12-25 22:00:00,33.5,28.9,30.31,WSW,238,0.0,7.0,83,0.00,,,0.00,VWS V14.01,2013-12-26 04:00:00,
2013-12-25 22:05:00,33.5,28.9,30.31,WSW,245,1.0,5.0,83,0.00,,,0.00,VWS V14.01,2013-12-26 04:05:00,
2013-12-25 22:10:00,33.5,28.9,30.31,West,261,1.0,5.0,83,0.00,,,0.00,VWS V14.01,2013-12-26 04:10:00,
2013-12-25 22:15:00,33.5,28.9,30.31,West,259,2.0,5.0,83,0.00,,,0.00,VWS V14.01,2013-12-26 04:15:00,
2013-12-25 22:20:00,33.5,28.9,30.32,West,259,0.0,5.0,83,0.00,,,0.00,VWS V14.01,2013-12-26 04:20:00,
2013-12-25 22:25:00,33.5,28.9,30.31,West,259,2.0,5.0,83,0.00,,,0.00,VWS V14.01,2013-12-26 04:25:00,
2013-12-25 22:30:00,33.5,28.9,30.31,West,259,1.0,5.0,83,0.00,,,0.00,VWS V14.01,2013-12-26 04:30:00,
2013-12-25 22:35:00,33.4,28.8,30.31,West,259,3.0,3.0,83,0.00,,,0.00,VWS V14.01,2013-12-26 04:35:00,
2013-12-25 22:40:00,33.3,28.7,30.31,West,259,2.0,3.0,83,0.00,,,0.00,VWS V14.01,2013-12-26 04:40:00,
2013-12-25 22:45:00,33.2,28.6,30.31,West,259,0.0,3.0,83,0.00,,,0.00,VWS V14.01,2013-12-26 04:45:00,
2013-12-25 22:50:00,33.1,28.5,30.31,West,259,0.0,3.0,83,0.00,,,0.00,VWS V14.01,2013-12-26 04:50:00,
2013-12-25 22:55:00,32.9,28.3,30.31,West,259,0.0,3.0,83,0.00,,,0.00,VWS V14.01,2013-12-26 04:55:00,
2013-12-25 23:00:00,32.4,27.8,30.31,West,259,0.0,3.0,83,0.00,,,0.00,VWS V14.01,2013-12-26 05:00:00,
2013-12-25 23:05:00,31.9,27.3,30.31,West,259,0.0,0.0,83,0.00,,,0.00,VWS V14.01,2013-12-26 05:05:00,
2013-12-25 23:10:00,31.5,27.2,30.31,West,259,0.0,0.0,84,0.00,,,0.00,VWS V14.01,2013-12-26 05:10:00,
2013-12-25 23:15:00,31.2,27.2,30.31,West,259,0.0,0.0,85,0.00,,,0.00,VWS V14.01,2013-12-26 05:15:00,
2013-12-25 23:20:00,30.8,26.8,30.31,West,259,0.0,0.0,85,0.00,,,0.00,VWS V14.01,2013-12-26 05:20:00,
2013-12-25 23:25:00,30.8,26.8,30.31,West,259,0.0,4.0,85,0.00,,,0.00,VWS V14.01,2013-12-26 05:25:00,
2013-12-25 23:30:00,30.7,26.5,30.31,West,259,0.0,4.0,84,0.00,,,0.00,VWS V14.01,2013-12-26 05:30:00,
2013-12-25 23:35:00,30.6,26.4,30.31,West,259,0.0,0.0,84,0.00,,,0.00,VWS V14.01,2013-12-26 05:35:00,
2013-12-25 23:40:00,30.5,26.2,30.32,West,259,0.0,0.0,84,0.00,,,0.00,VWS V14.01,2013-12-26 05:40:00,
2013-12-25 23:45:00,30.4,26.1,30.31,West,259,1.0,3.0,84,0.00,,,0.00,VWS V14.01,2013-12-26 05:45:00,
2013-12-25 23:50:00,30.8,26.5,30.31,West,259,0.0,3.0,84,0.00,,,0.00,VWS V14.01,2013-12-26 05:50:00,
2013-12-25 23:55:00,31.4,26.8,30.31,WNW,282,2.0,6.0,83,0.00,,,0.00,VWS V14.01,2013-12-26 05:55:00,